{"data":{"norad_id":67794,"intl_designator":"2026-030AG","name":"KUIPER-00276","alt_names":[],"object_type":"PAYLOAD","status":"ACTIVE","operator":null,"country":"US","launch_date":"2026-02-12","launch_site_code":"FRGUI","launch_vehicle":null,"mission":null,"orbit_class":"UNKNOWN","rcs_meters":null,"size_class":null,"mass_kg":null,"dimensions":null,"purposes":[],"wikipedia_slug":null,"has_3d_model":false,"image_url":null,"decayed_at":null,"tle_current":{"epoch":"2026-05-25T04:15:53.525376Z","epoch_age_seconds":70413,"freshness":"FRESH","line1":"1 67794U 26030AG  26145.17770284  .00010089  00000+0  42404-3 0  9992","line2":"2 67794  51.8840 215.6148 0018063 315.2730  44.6793 15.23874147 16773","mean_motion":15.23874147,"eccentricity":0.0018063,"inclination_deg":51.884,"raan_deg":215.6148,"arg_perigee_deg":315.273,"mean_anomaly_deg":44.6793,"bstar":0.00042404,"rev_number":1677,"period_min":94.495992522406,"perigee_km":481.75479003501,"apogee_km":506.58167992691,"semimajor_km":6872.305234981,"source":"CELESTRAK","updated_at":"2026-05-25T13:38:07.264311Z"}}}